Home   Weather   Leibnitz   Past weeks

Flag for Austria Past Weather in Leibnitz, Styria, Austria — Yesterday and Last 2 Weeks

Now
67 °F

Scattered clouds.


Feels Like: 67 °F
Forecast: 62 / 85 °F
Wind: N/A

Location: Graz-Thalerhof-Flughafen

Current Time: Jul 28, 2017 at 11:07:05 am

Latest Report: Jul 28, 2017 at 10:00 am


Visibility: 25 mi

Pressure: 29.88 "Hg

Humidity: 72%

Dew Point: 58 °F

Location of LeibnitzLocation

Past Weather in Leibnitz — Graph

°F

Leibnitz Temperature Yesterday

Maximum temperature yesterday: 75 °F (at 5:00 pm)
Minimum temperature yesterday: 55 °F (at 1:00 am)
Average temperature yesterday: 65 °F

High & Low Weather Summary for the Past Weeks

 TemperatureHumidityPressure
High91 °F (Jul 20, 4:00 pm)99% (Jul 26, 6:00 am)30.24 "Hg (Jul 26, 6:00 am)
Low49 °F (Jul 16, 5:00 am)27% (Jul 20, 4:00 pm)29.63 "Hg (Jul 25, 6:00 pm)
Average68 °F64%29.93 "Hg
* Reported Jul 13 9:00 am — Jul 28 9:00 am, Leibnitz. Weather by CustomWeather, © 2017

Note: Actual official high and low records may vary slightly from our data, if they occured in-between our weather recording intervals... More about our weather records

Advertising

Leibnitz Weather History for the Previous 24 Hours

Scroll right to see more
 ConditionsComfort  
Time TempWeatherWind HumidityBarometerVisibility
9:00 am
Fri, Jul 28
64 °FPartly sunny.N/A79%29.90 "Hg15 mi
8:00 am62 °FOvercast.N/A87%29.89 "Hg22 mi
7:00 am60 °FOvercast.N/A89%29.89 "Hg19 mi
6:00 am60 °FOvercast.N/A91%29.88 "Hg22 mi
5:00 am60 °FOvercast.N/A90%29.88 "Hg19 mi
4:00 am59 °FOvercast.N/A90%29.87 "Hg18 mi
3:00 am61 °FOvercast.N/A85%29.87 "Hg28 mi
2:00 am60 °FOvercast.N/A87%29.87 "Hg19 mi
1:00 am61 °FOvercast.N/A86%29.86 "Hg28 mi
12:00 am62 °FPassing clouds.N/A82%29.86 "Hg28 mi
11:00 pm
Thu, Jul 27
64 °FPassing clouds.N/A76%29.85 "Hg28 mi
10:00 pm66 °FOvercast.N/A73%29.85 "Hg31 mi
9:00 pm68 °FOvercast.N/A66%29.83 "Hg28 mi
8:00 pm69 °FOvercast.N/A64%29.81 "Hg31 mi
7:00 pm72 °FOvercast.3 mph54%29.80 "Hg25 mi
6:00 pm73 °FOvercast.3 mph49%29.80 "Hg28 mi
5:00 pm75 °FOvercast.N/A46%29.79 "Hg28 mi
4:00 pm73 °FPartly sunny.N/A42%29.79 "Hg28 mi
3:00 pm73 °FOvercast.N/A46%29.80 "Hg28 mi
2:00 pm71 °FOvercast.5 mph52%29.82 "Hg19 mi
1:00 pm70 °FPartly sunny.N/A48%29.83 "Hg25 mi
12:00 pm67 °FOvercast.N/A55%29.84 "Hg28 mi
11:00 am65 °FOvercast.N/A65%29.85 "Hg28 mi
Weather by CustomWeather, © 2017

See weather overviewHow to use our weather pages